User: anonymous   Login
Location: Wellington
(41.3000°S, 174.7830°E)
Time: 21:14:16
(UTC+12:00)
Language:

Cosmos 2181 Rocket - Orbit

View from above orbital plane
View from above orbital plane
View from above satellite
View from above satellite

Ground track
Ground track

The orbit data is extracted from the following two-line orbital elements,

1 21903U 92012B   19145.74160094 +.00000008 +00000-0 -65194-5 0  9999
2 21903 082.9381 019.6170 0041459 280.6363 142.6034 13.74496902364506
Epoch (UTC): 25 May 2019 17:47:54
Eccentricity: 0.0041459
inclination: 82.9381°
perigee height: 953 km
apogee height: 1014 km
right ascension of ascending node: 19.6170°
argument of perigee: 280.6363°
revolutions per day: 13.74496902
mean anomaly at epoch: 142.6034°
orbit number at epoch: 36450

The dashed part of the orbit path shows where the satellite is in the earth's shadow,  

DLR